Location: Newark
(47.5000°N, 4.6167°E)
Time: 00:45:46
(UTC+00:00)

ISS - Pass Details

Date: 20 May 2021
Orbit: 417 x 422 km, 51.6° (Epoch: 14 June)

Event Time Altitude Azimuth Distance (km) Brightness Sun altitude
Rises 20:53:35 0° 271° (W) 2,363 0.7 -12.9°
Reaches altitude 10° 20:55:45 10° 279° (W) 1,501 -0.2 -13.1°
Maximum altitude 20:58:58 42° 352° (N) 614 -2.5 -13.5°
Drops below altitude 10° 21:02:12 10° 65° (ENE) 1,505 -1.1 -13.8°
Sets 21:04:23 0° 73° (ENE) 2,371 -0.1 -14.0°
Enters shadow 21:04:23 - 73° (ENE) 2,373 -0.1 -14.0°
